Regional Weather Roundup
Issued by NWS

Home | Current Version | Previous Version | Graphics & Text | Print | Product List | Glossary On
Versions: 1 2 3 4 5 6 7 8 9 10 11 12 13 14 15 16 17 18 19 20 21 22 23 24 25 26 27 28 29 30 31 32 33 34 35 36 37 38 39 40 41 42 43 44 45 46 47 48 49 50
000
ASUS43 KDTX 221401
RWRMI
MICHIGAN HOURLY REGIONAL WEATHER ROUNDUP
NATIONAL WEATHER SERVICE DETROIT/PONTIAC MI
1000 AM EDT WED OCT 22 2014

NOTE: "FAIR" INDICATES FEW OR NO CLOUDS BELOW 12,000 FEET WITH NO
SIGNIFICANT WEATHER AND/OR OBSTRUCTION TO VISIBILITY.

MIZ047>049-052>055-059>063-066>070-074>076-081>083-221500-
SOUTHEAST LOWER MICHIGAN

CITY           SKY/WX    TMP DP  RH WIND       PRES   REMARKS
ADRIAN         CLOUDY    44  37  76 NE9       30.34R
ALMA           CLOUDY    43  38  80 N6        30.37S
ANN ARBOR      CLOUDY    45  37  73 NE8       30.33R
CARO           CLOUDY    44  38  80 NE5       30.36R
DETROIT CITY   CLOUDY    48  38  68 N9        30.33R
DETROIT        CLOUDY    46  39  76 N13G20    30.34R
FLINT          CLOUDY    46  38  73 NE7       30.36R
GROSSE ILE     CLOUDY    46  39  76 NE10      30.32R
HILLSDALE      CLOUDY    43  39  86 N7        30.33R
HOWELL         CLOUDY    42  38  85 N5        30.34R

CITY           SKY/WX    TMP DP  RH WIND       PRES   REMARKS
JACKSON        CLOUDY    43  37  79 N6        30.34R
LAMBERTVILLE   CLOUDY    46  39  76 N3        30.33R
LANSING        CLOUDY    42  36  79 N5        30.36R
LAPEER         CLOUDY    45  38  76 N8        30.35R
MASON          CLOUDY    42  37  83 N5        30.35R
MONROE         CLOUDY    46  39  76 N5        30.31R
MT. CLEMENS    PTSUNNY   47  40  74 N12       30.30S
PONTIAC        CLOUDY    44  37  76 N7        30.32R
PORT HOPE        N/A     47  39  74 NE12      30.34R
PORT HURON     PTSUNNY   46  39  76 N12       30.32R
TRI CITIES     CLOUDY    45  37  73 N9        30.38R
TROY           CLOUDY    47  39  74 N8G16     30.34S
SAGINAW HB     CLOUDY    45  39  81 CALM      30.37R
$$
MIZ043>046-050>051-056>058-064>065-071>073-077>080-221500-
SOUTHWEST LOWER MICHIGAN

CITY           SKY/WX    TMP DP  RH WIND       PRES   REMARKS
BATTLE CREEK   CLOUDY    42  37  82 NE6       30.35R
BENTON HARBOR  SUNNY     40  36  86 E5        30.36S
BIG RAPIDS     PTSUNNY   34  34 100 CALM      30.38S
COLDWATER      CLOUDY    42  39  87 NE8       30.34R
FREMONT        FAIR      38  34  87 E6        30.38R WCI  33
HOLLAND        SUNNY     40  35  83 E3        30.38R
GRAND RAPIDS   MOSUNNY   37  33  85 CALM      30.37R
IONIA          CLOUDY    40  37  91 NE3       30.36S
KALAMAZOO      PTSUNNY   41  37  86 N5        30.36R
LUDINGTON      SUNNY     34  33  96 E3        30.40S
MARSHALL       CLOUDY    41  37  86 E5        30.34S
MOUNT PLEASANT CLOUDY    42  36  79 N7        30.38R
SOUTH HAVEN    SUNNY     40  36  86 E3        30.37R
$$
MIZ016>042-221500-
NORTHERN LOWER MICHIGAN

CITY           SKY/WX    TMP DP  RH WIND       PRES   REMARKS
ALPENA         CLOUDY    42  34  73 N7        30.40R
BEAVER ISLAND  SUNNY     35  35  99 CALM      30.41S
BELLAIRE       CLOUDY    31  30  95 CALM      30.43R
CADILLAC       CLOUDY    32  32  99 E5        30.37R WCI  27
CHARLEVOIX     SUNNY     36  33  89 S5        30.44S WCI  32
FRANKFORT      SUNNY     36  32  86 CALM      30.41R
GAYLORD        CLOUDY    36  30  79 VRB5      30.38R WCI  32
GRAYLING       CLOUDY    36  32  85 NE5       30.40R WCI  32
HARBOR SPRINGS PTSUNNY   35  32  90 CALM      30.41S
HOUGHTON LAKE  CLOUDY    37  32  82 E6        30.39R WCI  32
MANISTEE       SUNNY     32  28  86 E8        30.41S WCI  25
OSCODA         CLOUDY    42  37  81 N6        30.38R
PELLSTON       SUNNY     34  32  92 NW3       30.42R
TRAVERSE CITY  MOSUNNY   35  30  82 CALM      30.41R
$$
MIZ007>008-015-221500-
EASTERN UPPER MICHIGAN

CITY           SKY/WX    TMP DP  RH WIND       PRES   REMARKS
KINROSS        SUNNY     37  34  87 NE3       30.41S
MACKINAC ISLAN MOSUNNY   40  33  75 NE3       30.41R
NEWBERRY       SUNNY     32  30  92 SE5       30.41R WCI  27
S. S. MARIE    SUNNY     36  30  79 NE5       30.41F WCI  32
MUNISING         N/A     36  31  82 SW6       30.38S WCI  31
$$
MIZ004>006-011>014-085-221500-
CENTRAL UPPER MICHIGAN

CITY           SKY/WX    TMP DP  RH WIND       PRES   REMARKS
MANISTIQUE     MOSUNNY   35  34  98 NE3       30.39S
ESCANABA       MOSUNNY   36  30  80 CALM      30.39S
MENOMINEE      CLOUDY    32  28  86 CALM      30.38S
$$
MIZ001>003-009>011-084-221500-
WESTERN UPPER MICHIGAN

CITY           SKY/WX    TMP DP  RH WIND       PRES   REMARKS
IRON MOUNTAIN  FOG       30  29  96 CALM      30.36S VSB 1/4
HOUGHTON       SUNNY     34  30  85 S7        30.32S WCI  28
COPPER HARBOR    N/A     41  33  73 SW13G18   30.32S
IRONWOOD       SUNNY     39  34  81 S12G17    30.26S WCI  32
$$

ABBREVIATIONS USED IN REMARKS
   TC - TEMPERATURE IN CELSIUS
  WCI - WIND CHILL INDEX
   HX - HEAT INDEX
  VSB - VISIBILITY




USA.gov is the U.S. government's official web portal to all federal, state and local government web resources and services.